Overview Statistics Trail Chart Weather Telemetry Raw packets
 

This is the latest recevied weather packets stored in our database for station/object M0SDM-10. If no packets are shown the sender has not sent any weather packets the latest 10 day(s).

<< 3 4 5 6 7 8 9 >>
Time Temp. Humidity Pressure Rain* Wind** Luminosity Snow
1788486765 18.89° C 73% 996.9 hPa - - - -
1788484965 18.89° C 69% 997.8 hPa - - - -
1788483165 18.89° C 67% 998.4 hPa - - - -
1788481365 18.89° C 67% 999.5 hPa - - - -
1788479565 18.89° C 66% 999.8 hPa - - - -
1788477764 18.89° C 65% 1000.4 hPa - - - -
1788475964 18.89° C 65% 1001 hPa - - - -
1788474164 18.89° C 64% 1001.2 hPa - - - -
1788472364 18.89° C 65% 1001.6 hPa - - - -
1788470564 18.89° C 64% 1001.8 hPa - - - -
1788468764 18.89° C 64% 1001.9 hPa - - - -
1788466964 19.44° C 67% 1002.4 hPa - - - -
1788465163 19.44° C 66% 1002.9 hPa - - - -
1788463362 20° C 66% 1002.9 hPa - - - -
1788461562 20° C 64% 1002.9 hPa - - - -
1788459762 20.56° C 64% 1002.9 hPa - - - -
1788457962 20.56° C 64% 1002.8 hPa - - - -
1788456163 19.44° C 63% 1002.6 hPa - - - -
1788454361 20° C 63% 1003.1 hPa - - - -
1788452561 20° C 63% 1003.4 hPa - - - -
1788450761 20° C 65% 1003.4 hPa - - - -
1788448961 20° C 64% 1003.4 hPa - - - -
1788447161 20° C 64% 1003.5 hPa - - - -
1788445361 20° C 66% 1003.5 hPa - - - -
1788443857 19.44° C 66% 1004 hPa - - - -

* Rain since midnight (hover to see other rain measurements)
** Current wind speed in m/s (hover to see current wind gust speed)